San Antonio Stinson, TX

3:33 AM CDT on April 25, 2017 (GMT -0500)
Stinson Municipal

Weather History for KSSF - January, 2013

Change the Weather History Date:

Friday, January 25, 2013

  Actual Average Record
Temperature  
Mean Temperature 68 °F -  
Max Temperature 79 °F 61 °F 79 °F (2013)
Min Temperature 57 °F 42 °F 25 °F (2014)
Cooling Degree Days 3    
Growing Degree Days 18 (Base 50)    
Moisture  
Dew Point 61 °F    
Average Humidity 85    
Maximum Humidity 100    
Minimum Humidity 52    
Precipitation  
Precipitation 0.00 in - - ()
Sea Level Pressure  
Sea Level Pressure 30.10 in    
Wind  
Wind Speed 3 mph (South)    
Max Wind Speed 10 mph    
Max Gust Speed -    
Visibility 8 miles    
Events      
Averages and records for this station are not official NWS values.
T = Trace of Precipitation, MM = Missing Value Source: NWS Daily Summary

Daily Weather History Graph

Daily Weather History Graph

Search for Another Location

Airport or City:

Trip Planner

Search our weather history database for the weather conditions in past years. The results will help you decide how hot, cold, wet, or windy it might be!

Date:

Astronomy

Jan. 25, 2013 Rise Set
Actual Time 7:26 AM CST 6:06 PM CST
Civil Twilight 7:01 AM CST 6:31 PM CST
Nautical Twilight 6:32 AM CST 7:00 PM CST
Astronomical Twilight 6:04 AM CST 7:28 PM CST
Moon 5:04 PM CST 6:06 AM CST
Length of Visible Light 11h 30m
Length of Day
10h 40m
Waxing Gibbous, 98% of the Moon is Illuminated
Jan 25
Waxing Gibbous
Jan 26
Full
Feb 3
Last Quarter
Feb 10
New
Feb 17
First Quarter

Hourly Weather History & Observations

Time (CST) Temp. Dew Point Humidity Pressure Visibility Wind Dir Wind Speed Gust Speed Precip Events Conditions
12:53 AM 60.1 °F 59.0 °F 96% 30.13 in 8.0 mi Calm Calm - N/A   Clear
1:15 AM 59.0 °F 57.2 °F 94% 30.15 in 7.0 mi Calm Calm - N/A   Scattered Clouds
1:28 AM 57.2 °F 57.2 °F 100% 30.15 in 2.5 mi Calm Calm - N/A   Mostly Cloudy
1:42 AM 57.2 °F 57.2 °F 100% 30.15 in 5.0 mi Calm Calm - N/A   Overcast
1:53 AM 59.0 °F 59.0 °F 100% 30.13 in 6.0 mi Calm Calm - N/A   Overcast
2:38 AM 62.6 °F 62.6 °F 100% 30.13 in 5.0 mi South 6.9 mph - N/A   Overcast
2:53 AM 62.1 °F 62.1 °F 100% 30.11 in 4.0 mi South 8.1 mph - N/A   Overcast
3:53 AM 63.0 °F 62.1 °F 97% 30.09 in 6.0 mi South 8.1 mph - N/A   Overcast
4:11 AM 62.6 °F 62.6 °F 100% 30.11 in 7.0 mi South 9.2 mph - N/A   Overcast
4:53 AM 62.1 °F 61.0 °F 96% 30.08 in 8.0 mi SSE 4.6 mph - N/A   Overcast
5:53 AM 62.1 °F 61.0 °F 96% 30.09 in 8.0 mi SSE 4.6 mph - N/A   Overcast
6:41 AM 62.6 °F 60.8 °F 94% 30.12 in 6.0 mi Calm Calm - N/A   Overcast
6:53 AM 62.1 °F 61.0 °F 96% 30.11 in 6.0 mi South 3.5 mph - N/A   Overcast
7:53 AM 62.1 °F 61.0 °F 96% 30.12 in 4.0 mi Calm Calm - N/A   Overcast
8:53 AM 63.0 °F 62.1 °F 97% 30.13 in 6.0 mi SSE 3.5 mph - N/A   Overcast
9:53 AM 64.9 °F 62.1 °F 90% 30.15 in 7.0 mi SSW 6.9 mph - N/A   Overcast
10:53 AM 66.0 °F 61.0 °F 84% 30.15 in 7.0 mi SSW 10.4 mph - N/A   Overcast
11:53 AM 68.0 °F 61.0 °F 78% 30.13 in 9.0 mi SSW 9.2 mph - N/A   Mostly Cloudy
12:06 PM 69.8 °F 60.8 °F 73% 30.14 in 8.0 mi SW 9.2 mph - N/A   Scattered Clouds
1:53 PM 75.9 °F 61.0 °F 60% 30.06 in 10.0 mi South 6.9 mph - N/A   Clear
2:53 PM 79.0 °F 60.1 °F 52% 30.03 in 10.0 mi SSW 5.8 mph - N/A   Clear
3:53 PM 78.1 °F 59.0 °F 52% 30.02 in 10.0 mi South 5.8 mph - N/A   Clear
4:53 PM 79.0 °F 60.1 °F 52% 30.01 in 10.0 mi South 4.6 mph - N/A   Clear
5:53 PM 78.1 °F 60.1 °F 54% 30.01 in 10.0 mi Calm Calm - N/A   Clear
6:53 PM 69.1 °F 60.1 °F 73% 30.03 in 10.0 mi Calm Calm - N/A   Clear
7:53 PM 68.0 °F 60.1 °F 76% 30.03 in 10.0 mi Calm Calm - N/A   Clear
8:53 PM 70.0 °F 61.0 °F 73% 30.04 in 10.0 mi SE 8.1 mph - N/A   Clear
9:53 PM 68.0 °F 64.0 °F 87% 30.07 in 10.0 mi SE 5.8 mph - N/A   Clear
10:53 PM 66.0 °F 62.1 °F 87% 30.09 in 10.0 mi SE 5.8 mph - N/A   Clear
11:53 PM 64.9 °F 62.1 °F 90% 30.09 in 10.0 mi East 4.6 mph - N/A   Clear